Location: Laguna de la Cañada del Gallo
(40.3974°N, 5.2096°W)
Time: 11:44:31
(UTC+00:00)

SL-4 R/B - Pass Details

Date: 18 April 2024
Orbit: 413 x 603 km, 51.6° (Epoch: 21 May)

Event Time Altitude Azimuth Distance (km) Brightness Sun altitude
Rises 20:10:38 0° 304° (NW) 2,540 7.4 -12.7°
Reaches altitude 10° 20:13:43 10° 331° (NNW) 1,614 5.3 -13.3°
Maximum altitude 20:15:42 14° 4° (N) 1,361 4.3 -13.6°
Drops below altitude 10° 20:17:38 10° 37° (NE) 1,562 4.2 -13.9°
Enters shadow 20:19:00 - 53° (NE) 1,909 4.5 -14.2°
